STARLINK-37136

Last updated on Sun Apr 12 2026 00:02:08 GMT+0000 (Coordinated Universal Time)

1 68347U 26059AC 26101.48356796 .00163839 00000+0 81576-3 0 9997 2 68347 53.1579 198.3035 0001020 84.5537 275.5602 15.80931755 3165
UTC large
Height (km)
Speed (km/s)
/
Latitude / Longitude
Inclination (degrees)
Orbital Period (minutes)
Azimuth
Elevation
Range (km)
Doppler Factor

Next 0 passes for location: London (51.5072 / 0.1276)

Sorry there are no passes over London.
STARLINK-37136